#timestamp,LO_Frequency,Hit,StdDev 
1502254815.3,286047000.1,N,1.1
1502254835.2,286047002.6,N,1.1
1502254855.9,286047001.8,N,1.1
1502254875.7,286047000.2,N,1.1
1502254895.6,286047000.6,N,1.1
1502254915.4,286047002.3,N,1.1
1502254935.3,286047002.8,N,1.1
1502254955.1,286047002.3,N,1.1
1502254956.0,286047002.3,N,1.1
1502254975.8,286047000.0,N,1.1
1502254995.7,286047000.2,N,1.1
1502255015.5,286047002.5,N,1.1
1502255035.4,286047002.5,N,1.1
1502255055.2,286047002.6,N,1.1
1502255075.0,286047002.8,N,1.1
1502255075.9,286047002.8,N,1.1
1502255095.8,286047002.5,N,1.1
1502255115.6,286047000.3,N,1.1
1502255135.4,286047000.5,N,1.1
1502255155.3,286047002.8,N,1.1
1502255175.1,286047002.7,N,1.1
1502255195.9,286047002.1,N,1.1
1502255215.7,286047002.2,N,1.1
1502255235.5,286047002.6,N,1.1
1502255255.4,286047000.1,N,1.1
1502255275.2,286047002.3,N,1.1
1502255295.1,286047000.1,N,1.1
1502255296.0,286047000.1,N,1.1
1502255315.8,286047000.4,N,1.1
1502255335.6,286047001.5,N,1.1
1502255355.5,286047000.1,N,1.1
1502255375.3,286047002.8,N,1.1
1502255395.2,286047002.6,N,1.1
1502255415.9,286046999.9,N,1.1
1502255435.7,286047002.3,N,1.1
1502255455.6,286047001.5,N,1.1
1502255475.4,286042622.4,Y,0.0
1502255495.3,286046999.4,P,1.1
1502255515.1,286046999.3,N,1.1
1502255516.0,286046999.3,N,1.0
1502255535.8,286046998.2,N,1.1
1502255555.7,286046998.4,N,1.1
1502255575.5,286046998.4,N,1.1
1502255595.4,286046998.7,N,1.0
1502255615.2,286046998.4,N,1.0
1502255635.0,286046999.9,N,1.0
1502255635.9,286046999.9,N,1.0
1502255655.8,286046998.8,N,0.9
1502255675.6,286047001.2,N,1.0
1502255695.5,286046998.6,N,1.0
1502255715.3,286046998.3,N,1.0
1502255735.1,286047001.1,N,1.1
1502255755.9,286047000.5,N,1.1
1502255775.7,286046998.8,N,1.1
1502255795.6,286046998.3,N,1.1
1502255815.4,286046998.3,N,1.1
1502255835.2,286046998.4,N,1.1
1502255855.1,286046999.0,N,1.0
1502255856.0,286046999.0,N,1.0
1502255875.8,286047000.8,N,1.0
1502255895.6,286046998.3,N,1.0
1502255915.5,286047001.2,N,1.1
1502255935.3,286046999.4,N,1.1
1502255955.2,286046998.2,N,1.1
1502255975.0,286047000.8,N,1.1
1502255975.9,286047000.8,N,1.1
1502255995.7,286046998.6,N,1.0
1502256015.6,286046998.6,N,1.0
1502256035.4,286046999.3,N,1.0
1502256055.3,286046998.4,N,1.0
1502256075.1,286047001.2,N,1.1
1502256095.8,286047000.0,N,1.1
1502256115.7,286047000.5,N,1.1
1502256135.5,286047000.7,N,1.1
1502256155.4,286047002.4,N,1.2
1502256175.2,286047000.1,N,1.2
1502256195.0,286047001.0,N,1.2
1502256195.9,286047001.0,N,1.2
1502256215.8,286047002.5,N,1.3
1502256235.6,286047000.9,N,1.3
1502256255.5,286046998.2,N,1.3
1502256275.3,286047001.1,N,1.3
1502256295.1,286047001.2,N,1.3
1502256315.9,286047000.4,N,1.3
1502256335.7,286047000.1,N,1.3
1502256355.6,286047002.6,N,1.3
1502256375.4,286047002.7,N,1.3
1502256395.2,286046999.9,N,1.3
1502256415.1,286047000.1,N,1.3
1502256416.0,286047000.1,N,1.3
1502256435.8,286047002.3,N,1.3
1502256455.7,286047002.2,N,1.3
1502256475.5,286047001.7,N,1.3
1502256495.3,286046999.8,N,1.2
1502256515.2,286047002.5,N,1.3
1502256535.0,286047002.2,N,1.3
1502256535.9,286047002.2,N,1.3
1502256555.8,286047002.2,N,1.2
1502256575.6,286047002.8,N,1.2
1502256595.4,286047002.4,N,1.1
1502256615.3,286047002.4,N,1.2
1502256635.1,286047002.3,N,1.1
1502256655.9,286047002.4,N,1.2
1502256675.7,286047002.7,N,1.2
1502256695.5,286047002.5,N,1.2
1502256715.4,286047002.1,N,1.1
1502256735.2,286047002.3,N,1.1
1502256755.1,286046999.7,N,1.2
1502256756.0,286046999.7,N,1.2
1502256775.8,286047000.5,N,1.2
1502256795.6,286047000.0,N,1.1
1502256815.5,286046999.8,N,1.2
1502256835.3,286046999.9,N,1.2
1502256855.2,286047000.5,N,1.2
1502256875.9,286047001.2,N,1.2
1502256895.7,286046998.9,N,1.2
1502256915.6,286046998.7,N,1.3
1502256935.4,286046999.0,N,1.3
1502256955.3,286046998.9,N,1.4
1502256975.1,286046998.5,N,1.4
1502256995.8,286046998.9,N,1.5
1502257015.7,286046998.8,N,1.5
1502257035.5,286046999.2,N,1.5
1502257055.4,286046996.5,N,1.7
1502257075.2,286046996.8,N,1.8
1502257095.0,286046997.1,N,1.9
1502257095.9,286046997.1,N,1.9
1502257115.8,286046995.0,N,2.1
1502257135.6,286046995.7,N,2.1
1502257155.5,286046995.2,N,2.2
1502257175.3,286046997.6,N,2.2
1502257195.1,286046995.3,N,2.2
1502257215.9,286046994.9,N,2.2
1502257235.7,286046995.2,N,2.2
1502257255.5,286046996.2,N,2.1
1502257275.4,286046995.9,N,2.0
1502257295.2,286046996.1,N,1.9
1502257315.1,286046995.5,N,1.9
1502257316.0,286046995.5,N,1.9
1502257335.8,286046995.3,N,1.9
1502257355.6,286046997.6,N,1.8
1502257375.5,286046995.0,N,1.8
1502257395.3,286046995.6,N,1.8
1502257415.2,286046993.7,Y,0.0
1502257435.9,286046996.5,P,0.3
1502257455.7,286046996.5,P,0.3
1502257475.6,286046999.6,N,1.3
1502257495.4,286046996.5,N,1.2
1502257515.3,286046997.0,N,1.1
1502257535.1,286046995.0,Y,0.0
1502257536.0,286046995.0,P,1.1
1502257555.8,286046998.7,N,1.5
1502257575.7,286046998.7,N,1.5
1502257595.5,286046999.3,N,1.6
1502257615.4,286046998.3,N,1.4
1502257635.2,286046998.6,N,1.4
1502257655.0,286046998.9,N,1.3
1502257655.9,286046998.9,N,1.3
1502257675.8,286046998.4,N,1.2
1502257695.6,286046999.3,N,1.2
1502257715.5,286046999.3,N,1.2
1502257735.3,286046998.9,N,1.1
1502257755.1,286046999.3,N,1.1
1502257775.9,286046998.9,N,1.1
1502257795.7,286046998.4,N,1.0
1502257815.6,286046998.4,N,1.0
1502257835.4,286046999.6,N,1.0
1502257855.2,286046998.9,N,1.0
1502257875.1,286046999.1,N,1.0
1502257876.0,286046999.1,N,1.0
1502257895.8,286046999.2,N,0.9
1502257915.6,286046998.5,N,0.9
1502257935.5,286046998.8,N,0.9
1502257955.3,286046999.3,N,0.9
1502257975.2,286046998.3,N,0.9
1502257995.0,286046998.6,N,0.9
1502257995.9,286046998.6,N,0.8
1502258015.7,286046998.3,N,0.8
1502258035.6,286046998.2,N,0.8
1502258055.4,286046999.1,N,0.8
1502258075.3,286046999.3,N,0.4
1502258095.1,286046999.2,N,0.4
1502258115.8,286046997.0,Y,0.0
1502258135.7,286046998.3,P,0.3
1502258155.5,286046999.4,N,0.4
1502258175.4,286046998.7,N,0.4
1502258195.2,286046998.5,Y,0.0
1502258215.0,286047000.0,P,0.6
1502258215.9,286047000.0,N,0.6
1502258235.8,286047000.9,N,0.7
1502258255.6,286047000.6,N,0.7
1502258275.5,286047001.0,N,0.7
1502258295.3,286047002.8,Y,0.0
1502258315.1,286046999.8,P,0.2
1502258335.9,286046999.8,N,0.2
1502258355.7,286047000.5,N,0.3
1502258375.6,286047000.5,N,0.3
1502258395.4,286046999.8,N,0.3
